Flag for Tunisia Weather past 2 weeks in Tunis, Tunisia

Now
91 °F

Passing clouds.


Feels Like: 91 °F
Forecast: 72 / 91 °F
Wind: 8 mph from Northwest

Location: Tunis-Carthage

Current Time: Aug 28, 2014 at 10:52:45 AM

Latest Report: Aug 28, 2014 at 10:30 AM


Visibility: N/A

Pressure: 29.98 "Hg

Humidity: 34%

Dew point: 59 °F

Location of TunisLocation

Historic Weather in Tunis — Graph

°F

Tunis temperature yesterday

Maximum temperature yesterday: 95 °F (at 11:30 AM)
Minimum temperature yesterday: 72 °F (at 4:30 AM)
Average temperature yesterday: 83 °F

Past Weeks' High & Low Weather Summary

 TemperatureHumidityPressure
High108 °F (Aug 13, 1:00 PM)94% (Aug 26, 2:30 AM)30.09 "Hg (Aug 26, 2:30 AM)
Low66 °F (Aug 26, 4:00 AM)20% (Aug 19, 1:30 PM)29.77 "Hg (Aug 13, 11:30 AM)
Average82 °F59%29.97 "Hg
* Reported Aug 13 9:00 AM — Aug 28 9:30 AM, Tunis, Weather by CustomWeather, © 2014

Note: Actual official high and low records may vary slightly from our data, if they occured in-between our weather recording intervals... More about our weather records

Advertising

Tunis weather history for previous 24 hours

 ConditionsComfort  
Time TempWeatherWind HumidityBarometerVisibility
9:30 AM
Aug 28
90 °FPassing clouds.6 mph29%29.98 "HgN/A
9:00 AM86 °FPassing clouds.5 mph40%29.98 "HgN/A
8:30 AM84 °FPassing clouds.6 mph48%29.95 "HgN/A
8:00 AM82 °FPassing clouds.6 mph51%29.95 "HgN/A
7:30 AM81 °FPassing clouds.5 mph62%29.95 "HgN/A
7:00 AM77 °FPassing clouds.No wind74%29.95 "HgN/A
6:30 AM75 °FScattered clouds.6 mph83%29.95 "HgN/A
6:00 AM73 °FScattered clouds.No wind83%29.95 "HgN/A
5:30 AM73 °FPassing clouds.No wind83%29.95 "HgN/A
5:00 AM73 °FPassing clouds.3 mph89%29.92 "HgN/A
4:30 AM73 °FPassing clouds.2 mph89%29.92 "HgN/A
4:00 AM75 °FPassing clouds.No wind83%29.92 "HgN/A
3:00 AM72 °FPassing clouds.No wind88%29.92 "HgN/A
2:30 AM73 °FPassing clouds.No wind83%29.92 "HgN/A
2:00 AM75 °FPassing clouds.3 mph83%29.95 "HgN/A
1:30 AM75 °FPassing clouds.No wind78%29.95 "HgN/A
1:00 AM75 °FPassing clouds.No wind78%29.95 "HgN/A
12:30 AM75 °FPassing clouds.No wind83%29.95 "HgN/A
12:00 AM77 °FPassing clouds.No wind74%29.95 "HgN/A
11:30 PM
Aug 27
75 °FPassing clouds.No wind83%29.95 "HgN/A
11:00 PM75 °FPassing clouds.No wind83%29.95 "HgN/A
10:30 PM77 °FPassing clouds.No wind79%29.95 "HgN/A
10:00 PM77 °FPassing clouds.6 mph79%29.95 "HgN/A
9:30 PM77 °FPassing clouds.3 mph79%29.95 "HgN/A
9:00 PM79 °FPassing clouds.No wind70%29.95 "HgN/A
8:30 PM79 °FPassing clouds.5 mph79%29.95 "HgN/A
8:00 PM79 °FPassing clouds.6 mph79%29.92 "HgN/A
6:30 PM82 °FPassing clouds.8 mph66%29.89 "HgN/A
6:00 PM84 °FPassing clouds.9 mph66%29.89 "HgN/A
5:30 PM86 °FPassing clouds.10 mph62%29.89 "HgN/A
5:00 PM86 °FPassing clouds.10 mph59%29.89 "HgN/A
3:30 PM91 °FPassing clouds.13 mph49%29.89 "HgN/A
3:00 PM91 °FPassing clouds.10 mph52%29.89 "HgN/A
2:30 PM91 °FSunny.12 mph52%29.92 "Hg10 mi
2:00 PM93 °FSunny.10 mph49%29.92 "Hg10 mi
1:30 PM93 °FSunny.9 mph47%29.92 "Hg10 mi
1:00 PM93 °FPassing clouds.9 mph44%29.92 "HgN/A
12:30 PM93 °FSunny.9 mph41%29.92 "Hg10 mi
12:00 PM93 °FPassing clouds.10 mph41%29.92 "HgN/A
11:30 AM95 °FPassing clouds.9 mph39%29.92 "HgN/A
11:00 AM93 °FPassing clouds.6 mph41%29.95 "HgN/A
10:30 AM91 °FPassing clouds.6 mph44%29.95 "HgN/A
Weather by CustomWeather, © 2014

See weather overviewHow to use our weather pages